Home   Weather   Fredrikstad   Past weeks

Flag for Norway Past Weather in Fredrikstad, Norway — Yesterday and Last 2 Weeks

Now
34 °F

Snow flurries. Passing clouds.


Feels Like: 23 °F
Forecast: 34 / 48 °F
Wind: 16 mph from North

Location: Rygge

Current Time: Apr 25, 2017 at 5:09:18 am

Latest Report: Apr 25, 2017 at 4:20 am


Visibility: N/A

Pressure: 29.33 "Hg

Humidity: 93%

Dew Point: 32 °F

Location of FredrikstadLocation

Past Weather in Fredrikstad — Graph

°F

Fredrikstad Temperature Yesterday

Maximum temperature yesterday: 43 °F (at 1:50 am)
Minimum temperature yesterday: 34 °F (at 7:50 pm)
Average temperature yesterday: 38 °F

High & Low Weather Summary for the Past Weeks

 TemperatureHumidityPressure
High57 °F (Apr 10, 2:20 pm)100% (Apr 10, 3:20 am)30.54 "Hg (Apr 10, 3:20 am)
Low25 °F (Apr 16, 2:50 am)22% (Apr 22, 2:20 pm)29.24 "Hg (Apr 24, 8:50 pm)
Average41 °F64%29.84 "Hg
* Reported Apr 10 3:20 am — Apr 25 3:50 am, Fredrikstad, Weather by CustomWeather, © 2017

Note: Actual official high and low records may vary slightly from our data, if they occured in-between our weather recording intervals... More about our weather records

Advertising

Fredrikstad Weather History for the Previous 24 Hours

Scroll right to see more
 ConditionsComfort  
Time TempWeatherWind HumidityBarometerVisibility
3:50 am
Tue, Apr 25
34 °FSnow flurries. Partly cloudy.15 mph93%29.30 "HgN/A
3:20 am34 °FMostly cloudy.15 mph93%29.30 "HgN/A
2:50 am34 °FMostly cloudy.15 mph93%29.30 "HgN/A
2:20 am34 °FLight rain. Partly cloudy.16 mph93%29.27 "HgN/A
1:50 am34 °FOvercast.17 mph93%29.27 "HgN/A
1:20 am34 °FPartly cloudy.16 mph93%29.27 "HgN/A
12:50 am34 °FSleet. Low clouds.16 mph93%29.27 "Hg4 mi
12:20 am34 °FLight snow. Dense fog.14 mph93%29.24 "Hg2 mi
11:50 pm
Mon, Apr 24
34 °FLight snow. Passing clouds.14 mph93%29.27 "Hg1 mi
11:20 pm34 °FLight rain. Passing clouds.14 mph93%29.24 "Hg5 mi
10:20 pm36 °FLight rain. Passing clouds.13 mph93%29.24 "Hg6 mi
9:50 pm34 °FLight rain. Passing clouds.10 mph100%29.24 "Hg6 mi
9:20 pm34 °FRain. Passing clouds.12 mph93%29.24 "Hg2 mi
8:50 pm34 °FLight rain. Partly sunny.13 mph100%29.24 "Hg5 mi
8:20 pm34 °FLight rain. Partly sunny.13 mph100%29.27 "Hg5 mi
7:50 pm34 °FLight rain. Partly sunny.14 mph93%29.27 "Hg5 mi
7:20 pm36 °FDrizzle. Broken clouds.12 mph93%29.27 "HgN/A
6:50 pm37 °FDrizzle. Broken clouds.14 mph87%29.27 "HgN/A
6:20 pm37 °FScattered showers. Partly sunny.16 mph81%29.27 "HgN/A
5:50 pm39 °FPartly sunny.13 mph75%29.27 "HgN/A
5:20 pm39 °FPartly sunny.16 mph75%29.27 "HgN/A
4:50 pm41 °FBroken clouds.15 mph76%29.27 "HgN/A
4:20 pm39 °FPartly sunny.13 mph81%29.27 "HgN/A
3:50 pm41 °FMore clouds than sun.12 mph76%29.27 "HgN/A
2:50 pm41 °FPartly sunny.9 mph81%29.30 "HgN/A
2:20 pm39 °FBroken clouds.10 mph87%29.30 "HgN/A
1:50 pm39 °FPartly sunny.10 mph81%29.30 "HgN/A
1:20 pm39 °FPartly sunny.10 mph87%29.30 "HgN/A
12:50 pm39 °FPartly sunny.12 mph87%29.30 "HgN/A
12:20 pm39 °FDrizzle. Partly sunny.5 mph93%29.30 "Hg6 mi
11:50 am37 °FDrizzle. Broken clouds.5 mph100%29.30 "HgN/A
11:20 am37 °FRain. Cloudy.5 mph93%29.30 "Hg4 mi
10:50 am36 °FDrizzle. Broken clouds.7 mph93%29.30 "Hg4 mi
10:20 am36 °FLight rain. Mostly cloudy.15 mph93%29.33 "Hg4 mi
9:50 am39 °FLight rain. Low clouds.16 mph93%29.33 "Hg4 mi
9:20 am37 °FLight rain. Low clouds.18 mph93%29.36 "Hg3 mi
8:50 am37 °FLight rain. Partly sunny.20 mph93%29.39 "Hg4 mi
8:20 am37 °FLight rain. Low clouds.17 mph93%29.42 "Hg2 mi
7:50 am37 °FRain. Low clouds.15 mph93%29.42 "Hg2 mi
7:20 am37 °FRain. Cloudy.16 mph93%29.45 "Hg2 mi
6:50 am37 °FRain. Mostly cloudy.15 mph93%29.47 "Hg5 mi
6:20 am37 °FDrizzle. Low clouds.14 mph93%29.50 "HgN/A
5:50 am37 °FDrizzle. Mostly cloudy.13 mph93%29.53 "Hg6 mi
5:20 am37 °FLight rain. Mostly cloudy.12 mph93%29.56 "Hg4 mi
Weather by CustomWeather, © 2017

See weather overviewHow to use our weather pages